Вернуться в каталог

SL-8 R/B

АктивенPO
NORAD 14085·ROCKET BODY·🇷🇺 Russia

Запущен May 24, 1983 с Plesetsk Cosmodrome

Loading…

Ближайшие Пролёты (ближайшие 24 часа)

TLE

СвежийSource: Space-Track

Эпоха: Sep 14, 2026, 20:16 UTC

1 14085U 83048B   26257.84452892  .00000099  00000-0  84872-4 0  9996
2 14085  82.9398 102.9686 0034026  24.8264 335.4521 13.76611246174880

Отслеживайте SL-8 R/B в реальном времени с AllMySat

Download on the App Store